Location: Koussan�
(15.2012°N, 12.5548°W)
Time: 11:36:30
(UTC+00:00)

GPS 2-04 Rocket1 - Pass Details

Date: 20 October 2020
Orbit: 418 x 546 km, 35.6° (Epoch: 26 November)

Event Time Altitude Azimuth Distance (km) Brightness Sun altitude
Rises 19:41:32 0° 219° (SW) 2,661 7.0 -18.7°
Reaches altitude 10° 19:43:53 10° 210° (SSW) 1,785 5.9 -19.3°
Enters shadow 19:47:39 36° 145° (SE) 860 3.5 -20.2°
